Ord, NE

10:47 PM CDT on March 23, 2017 (GMT -0500)
Sharp

Weather History for KODX - October, 2013

Change the Weather History Date:

Friday, October 18, 2013

  Actual Average Record
Temperature  
Mean Temperature 37 °F 49 °F  
Max Temperature 51 °F 62 °F 90 °F (2005)
Min Temperature 23 °F 36 °F 23 °F (2013)
Degree Days  
Heating Degree Days 28 16  
Month to date heating degree days 240 236  
Since 1 July heating degree days 292 373  
Cooling Degree Days 0 0  
Month to date cooling degree days 1 6  
Year to date cooling degree days 907 844  
Moisture  
Dew Point 26 °F    
Average Humidity 64    
Maximum Humidity 92    
Minimum Humidity 35    
Precipitation  
Precipitation 0.00 in 0.06 in 2.40 in (1904)
Month to date precipitation 1.51 1.23  
Year to date precipitation 23.74 22.58  
Sea Level Pressure  
Sea Level Pressure 30.13 in    
Wind  
Wind Speed 6 mph (WNW)    
Max Wind Speed 15 mph    
Max Gust Speed 18 mph    
Visibility 10 miles    
Events      
T = Trace of Precipitation, MM = Missing Value Source: NWS Daily Summary

Daily Weather History Graph

Daily Weather History Graph

Search for Another Location

Airport or City:

Trip Planner

Search our weather history database for the weather conditions in past years. The results will help you decide how hot, cold, wet, or windy it might be!

Date:

Astronomy

Oct. 18, 2013 Rise Set
Actual Time 7:51 AM CDT 6:49 PM CDT
Civil Twilight 7:23 AM CDT 7:17 PM CDT
Nautical Twilight 6:51 AM CDT 7:49 PM CDT
Astronomical Twilight 6:19 AM CDT 8:21 PM CDT
Moon 6:40 PM CDT (10/18) 7:28 AM CDT (10/18)
Length of Visible Light 11h 54m
Length of Day
10h 57m
Full, 100% of the Moon is Illuminated
Oct 18
Full
Oct 18
Full
Oct 26
Last Quarter
Nov 3
New
Nov 9
First Quarter

Hourly Weather History & Observations

Time (CDT) Temp. Windchill Dew Point Humidity Pressure Visibility Wind Dir Wind Speed Gust Speed Precip Events Conditions
12:53 AM 27.0 °F 21.6 °F 24.1 °F 89% 30.15 in 10.0 mi West 4.6 mph - N/A   Clear
1:53 AM 28.0 °F 21.7 °F 23.0 °F 81% 30.16 in 10.0 mi West 5.8 mph - N/A   Clear
2:53 AM 26.1 °F 21.9 °F 21.9 °F 84% 30.17 in 10.0 mi NW 3.5 mph - N/A   Clear
3:53 AM 26.1 °F - 23.0 °F 88% 30.17 in 10.0 mi Calm Calm - N/A   Clear
4:53 AM 27.0 °F - 24.1 °F 89% 30.16 in 10.0 mi Calm Calm - N/A   Clear
5:53 AM 25.0 °F 20.7 °F 23.0 °F 92% 30.17 in 10.0 mi WNW 3.5 mph - N/A   Clear
6:53 AM 24.1 °F 19.7 °F 21.0 °F 88% 30.18 in 10.0 mi NW 3.5 mph - N/A   Clear
7:53 AM 27.0 °F - 24.1 °F 89% 30.18 in 10.0 mi Calm Calm - N/A   Clear
8:53 AM 30.0 °F - 26.1 °F 85% 30.19 in 10.0 mi Calm Calm - N/A   Clear
9:53 AM 34.0 °F 31.0 °F 28.9 °F 82% 30.19 in 10.0 mi NW 3.5 mph - N/A   Clear
10:53 AM 41.0 °F 35.2 °F 28.0 °F 60% 30.17 in 10.0 mi NW 9.2 mph - N/A   Clear
11:53 AM 46.0 °F 41.0 °F 25.0 °F 44% 30.15 in 10.0 mi West 10.4 mph - N/A   Clear
12:53 PM 48.9 °F - 25.0 °F 39% 30.14 in 10.0 mi West 9.2 mph - N/A   Clear
1:53 PM 51.1 °F - 24.1 °F 35% 30.11 in 10.0 mi Variable 5.8 mph - N/A   Mostly Cloudy
2:53 PM 48.0 °F - 24.1 °F 39% 30.09 in 10.0 mi West 8.1 mph - N/A   Overcast
3:53 PM 48.9 °F - 26.1 °F 41% 30.07 in 10.0 mi West 8.1 mph - N/A   Overcast
4:53 PM 48.9 °F - 27.0 °F 43% 30.07 in 10.0 mi WNW 11.5 mph - N/A   Overcast
5:53 PM 48.0 °F - 27.0 °F 44% 30.07 in 10.0 mi NW 10.4 mph - N/A   Overcast
6:53 PM 43.0 °F 40.3 °F 30.9 °F 62% 30.09 in 10.0 mi West 4.6 mph - N/A   Overcast
7:53 PM 41.0 °F 38.0 °F 30.0 °F 65% 30.10 in 10.0 mi WNW 4.6 mph - N/A   Overcast
8:53 PM 37.0 °F 33.3 °F 28.9 °F 73% 30.10 in 10.0 mi WNW 4.6 mph - N/A   Scattered Clouds
9:53 PM 37.0 °F 32.4 °F 28.9 °F 73% 30.09 in 10.0 mi West 5.8 mph - N/A   Overcast
10:53 PM 37.9 °F 31.5 °F 28.0 °F 68% 30.07 in 10.0 mi West 9.2 mph - N/A   Mostly Cloudy
11:53 PM 37.0 °F 32.4 °F 28.9 °F 73% 30.05 in 10.0 mi West 5.8 mph - N/A   Overcast